Location: Ay?beleni
(36.6500°N, 30.3000°E)
Time: 01:05:09
(UTC+00:00)

Timation 2 Rocket - Pass Details

Date: 16 October 2021
Orbit: 904 x 1077 km, 70.0° (Epoch: 04 December)

Event Time Altitude Azimuth Distance (km) Brightness Sun altitude
Rises 16:04:57 0° 338° (NNW) 3,878 7.4 -9.6°
Reaches altitude 10° 16:07:38 10° 341° (NNW) 2,915 6.7 -10.1°
Maximum altitude 16:14:31 73° 65° (ENE) 1,105 4.1 -11.5°
Drops below altitude 10° 16:21:10 10° 151° (SSE) 2,823 6.2 -12.8°
Sets 16:23:43 0° 153° (SSE) 3,748 6.8 -13.3°
